FW7042 Weather Reports


time (UTC)temp
F
wind
direction
speed
knots
gust
knots
rain 1hr
in
rain 24hr
in
rain mn
in
humidity
%
barometer
mb
20260506035236 74 238 0.9 1.7 0.00 0.00 0.00 29 1010.2
20260506034732 74 223 2.6 2.6 0.00 0.00 0.00 29 1010.1
20260506034230 74 255 3.5 4.3 0.00 0.00 0.00 29 1010.1
20260506033727 74 256 2.6 4.3 0.00 0.00 0.00 30 1010.1
20260506033224 74 238 4.3 5.2 0.00 0.00 0.00 29 1010.1
20260506032721 74 239 5.2 7.8 0.00 0.00 0.00 29 1010.0
20260506032218 74 258 4.3 6.1 0.00 0.00 0.00 29 1009.8
20260506031714 74 234 7.0 9.6 0.00 0.00 0.00 29 1010.1
20260506031212 74 250 4.3 6.1 0.00 0.00 0.00 30 1009.7
20260506030710 74 270 5.2 7.0 0.00 0.00 0.00 30 1010.0
20260506030207 74 255 4.3 6.1 0.00 0.00 0.00 30 1009.5
20260506025704 74 256 2.6 5.2 0.00 0.00 0.00 30 1009.4
20260506025200 74 261 5.2 9.6 0.00 0.00 0.00 30 1009.6
20260506024657 74 250 3.5 4.3 0.00 0.00 0.00 30 1009.5
20260506024153 75 239 3.5 5.2 0.00 0.00 0.00 30 1009.5
20260506023650 75 246 4.3 6.1 0.00 0.00 0.00 29 1009.5
20260506023147 75 283 2.6 2.6 0.00 0.00 0.00 29 1009.2
20260506022644 75 244 4.3 6.1 0.00 0.00 0.00 28 1009.4
20260506022142 75 218 3.5 5.2 0.00 0.00 0.00 28 1009.3
20260506021640 75 229 6.1 7.0 0.00 0.00 0.00 28 1009.2
20260506021136 76 255 3.5 5.2 0.00 0.00 0.00 28 1009.2
20260506020633 76 232 6.1 7.0 0.00 0.00 0.00 28 1009.1
20260506020131 76 158 4.3 6.1 0.00 0.00 0.00 28 1009.1
20260506015628 76 253 5.2 8.7 0.00 0.00 0.00 27 1008.9
20260506015125 77 265 7.8 9.6 0.00 0.00 0.00 27 1008.7
20260506014623 77 235 7.8 8.7 0.00 0.00 0.00 26 1008.9
20260506014118 77 242 9.6 13.9 0.00 0.00 0.00 26 1008.7
20260506013617 77 216 7.0 11.3 0.00 0.00 0.00 26 1008.5
20260506013113 77 233 3.5 7.0 0.00 0.00 0.00 27 1008.5
20260506012609 77 230 4.3 7.8 0.00 0.00 0.00 27 1008.3
20260506012106 77 225 2.6 2.6 0.00 0.00 0.00 27 1008.4
20260506011604 77 223 3.5 5.2 0.00 0.00 0.00 27 1008.0
20260506011100 77 227 1.7 1.7 0.00 0.00 0.00 27 1008.0
20260506010559 78 236 1.7 2.6 0.00 0.00 0.00 27 1008.1
20260506010056 78 236 0.0 0.9 0.00 0.00 0.00 26 1008.1
20260506005553 78 200 3.5 5.2 0.00 0.00 0.00 26 1007.9
20260506005049 78 107 3.5 5.2 0.00 0.00 0.00 26 1007.9
20260506004546 78 230 1.7 2.6 0.00 0.00 0.00 25 1007.9
20260506004043 78 162 4.3 6.1 0.00 0.00 0.00 25 1007.6
20260506003539 79 192 5.2 7.0 0.00 0.00 0.00 25 1008.1
20260506003036 79 234 6.1 8.7 0.00 0.00 0.00 24 1008.2
20260506002532 79 266 3.5 5.2 0.00 0.00 0.00 24 1008.0
20260506002027 79 253 5.2 7.0 0.00 0.00 0.00 23 1008.0
20260506001524 79 250 3.5 4.3 0.00 0.00 0.00 22 1007.9
20260506001021 80 202 3.5 5.2 0.00 0.00 0.00 22 1008.1
20260506000519 80 235 3.5 5.2 0.00 0.00 0.00 22 1008.1
20260506000016 80 246 3.5 6.1 0.00 0.00 0.00 22 1007.9
20260505235514 80 268 0.9 1.7 0.00 0.00 0.00 21 1008.0
20260505235010 80 206 4.3 5.2 0.00 0.00 0.00 22 1007.9
20260505234508 80 200 4.3 7.0 0.00 0.00 0.00 22 1007.8
20260505234004 80 230 2.6 2.6 0.00 0.00 0.00 23 1008.0
20260505233502 80 166 5.2 7.0 0.00 0.00 0.00 22 1008.0
20260505232959 80 216 3.5 5.2 0.00 0.00 0.00 23 1007.9
20260505232457 80 235 2.6 4.3 0.00 0.00 0.00 23 1008.1
20260505231954 81 331 5.2 11.3 0.00 0.00 0.00 24 1007.9
20260505231451 81 152 2.6 4.3 0.00 0.00 0.00 23 1008.0
20260505230949 81 201 2.6 8.7 0.00 0.00 0.00 24 1007.8
20260505230447 81 246 7.8 13.9 0.00 0.00 0.00 24 1007.9
20260505225943 81 231 4.3 6.1 0.00 0.00 0.00 23 1008.2
20260505225440 80 63 1.7 1.7 0.00 0.00 0.00 23 1008.2
20260505224936 80 250 7.8 12.2 0.00 0.00 0.00 23 1008.0
20260505224433 80 222 5.2 11.3 0.00 0.00 0.00 24 1008.1
20260505223930 80 257 4.3 7.8 0.00 0.00 0.00 23 1008.1
20260505223427 80 261 5.2 8.7 0.00 0.00 0.00 23 1008.0
20260505222923 79 274 7.8 11.3 0.00 0.00 0.00 23 1008.1
20260505222420 79 226 6.1 9.6 0.00 0.00 0.00 24 1008.2
20260505221916 79 242 4.3 7.8 0.00 0.00 0.00 23 1008.2
20260505221413 80 237 5.2 7.0 0.00 0.00 0.00 23 1008.2
20260505220910 80 190 2.6 4.3 0.00 0.00 0.00 23 1008.2
20260505220407 80 215 4.3 6.1 0.00 0.00 0.00 23 1008.1
20260505215905 80 216 4.3 7.8 0.00 0.00 0.00 24 1008.2
20260505215403 80 237 0.9 1.7 0.00 0.00 0.00 24 1008.1
20260505214900 80 290 0.0 0.0 0.00 0.00 0.00 24 1008.2
20260505214358 80 142 3.5 4.3 0.00 0.00 0.00 24 1008.3
20260505213855 80 217 0.9 0.9 0.00 0.00 0.00 24 1008.5
20260505213353 80 222 0.0 0.0 0.00 0.00 0.00 24 1008.5
20260505212848 79 251 0.9 0.9 0.00 0.00 0.00 25 1008.6
20260505212346 78 218 0.0 0.0 0.00 0.00 0.00 26 1008.7
20260505211842 78 139 0.9 0.9 0.00 0.00 0.00 25 1008.5
20260505211340 78 92 1.7 1.7 0.00 0.00 0.00 25 1008.6
20260505210836 78 180 2.6 2.6 0.00 0.00 0.00 25 1008.6
20260505210333 79 107 1.7 2.6 0.00 0.00 0.00 25 1008.4
20260505205829 79 179 0.9 1.7 0.00 0.00 0.00 24 1009.0
20260505205328 78 190 0.0 0.0 0.00 0.00 0.00 25 1009.2
20260505204824 78 233 0.9 0.9 0.00 0.00 0.00 24 1009.2
20260505204322 78 193 0.9 1.7 0.00 0.00 0.00 25 1009.1
20260505203820 79 218 0.0 0.0 0.00 0.00 0.00 25 1009.1
20260505203316 79 220 0.9 0.9 0.00 0.00 0.00 24 1009.1
20260505202812 79 222 0.9 0.9 0.00 0.00 0.00 24 1009.2
20260505202308 80 201 0.0 0.0 0.00 0.00 0.00 24 1009.2
20260505201805 79 215 0.0 0.9 0.00 0.00 0.00 24 1009.2
20260505201303 80 130 0.9 0.9 0.00 0.00 0.00 23 1009.3
20260505200801 80 88 1.7 2.6 0.00 0.00 0.00 24 1009.5
20260505200258 80 148 0.9 1.7 0.00 0.00 0.00 24 1009.5
20260505195753 80 220 0.0 0.0 0.00 0.00 0.00 24 1009.4
20260505195251 80 201 0.0 0.0 0.00 0.00 0.00 23 1009.3
20260505194747 80 222 0.0 0.0 0.00 0.00 0.00 23 1009.6
20260505194244 80 240 0.9 1.7 0.00 0.00 0.00 24 1009.5
20260505193740 81 210 3.5 4.3 0.00 0.00 0.00 23 1010.0
20260505193238 80 236 0.9 0.9 0.00 0.00 0.00 24 1009.6
20260505192736 80 52 2.6 4.3 0.00 0.00 0.00 23 1010.1
20260505192233 80 351 2.6 4.3 0.00 0.00 0.00 24 1009.7
20260505191731 80 237 0.0 0.0 0.00 0.00 0.00 23 1009.8
20260505191230 80 223 1.7 2.6 0.00 0.00 0.00 25 1010.0
20260505190725 80 175 0.0 0.9 0.00 0.00 0.00 24 1010.0
20260505190225 81 192 0.9 0.9 0.00 0.00 0.00 24 1010.1
20260505185722 80 222 0.0 0.0 0.00 0.00 0.00 24 1009.7
20260505185218 80 218 0.9 0.9 0.00 0.00 0.00 24 1009.8
20260505184709 80 80 3.5 6.1 0.00 0.00 0.00 23 1009.7
20260505184206 80 248 1.7 2.6 0.00 0.00 0.00 24 1009.5
20260505183703 80 162 2.6 4.3 0.00 0.00 0.00 23 1010.0
20260505183200 79 229 0.9 1.7 0.00 0.00 0.00 26 1010.2
20260505182656 79 313 2.6 2.6 0.00 0.00 0.00 25 1010.3
20260505182154 79 74 0.0 0.9 0.00 0.00 0.00 25 1010.1
20260505181650 80 35 2.6 4.3 0.00 0.00 0.00 25 1010.2
20260505181148 80 225 1.7 4.3 0.00 0.00 0.00 25 1010.1
20260505180644 79 221 0.9 0.9 0.00 0.00 0.00 27 1010.3
20260505180141 78 230 1.7 1.7 0.00 0.00 0.00 26 1009.8
20260505175637 79 88 0.9 0.9 0.00 0.00 0.00 26 1010.1
20260505175134 79 259 2.6 5.2 0.00 0.00 0.00 26 1010.1
20260505174630 79 235 0.9 1.7 0.00 0.00 0.00 26 1010.4
20260505174126 78 203 3.5 5.2 0.00 0.00 0.00 26 1010.4
20260505173623 79 335 2.6 4.3 0.00 0.00 0.00 25 1010.4
20260505173119 78 177 1.7 2.6 0.00 0.00 0.00 27 1010.3
20260505172618 78 238 2.6 5.2 0.00 0.00 0.00 27 1010.4
20260505172114 77 222 0.9 0.9 0.00 0.00 0.00 27 1010.6
20260505171609 78 75 1.7 1.7 0.00 0.00 0.00 27 1010.7
20260505171106 77 233 0.9 0.9 0.00 0.00 0.00 27 1010.4
20260505170603 79 355 0.9 0.9 0.00 0.00 0.00 27 1010.5
20260505170059 78 257 2.6 2.6 0.00 0.00 0.00 27 1010.6
20260505165554 78 303 2.6 4.3 0.00 0.00 0.00 28 1010.3
20260505165050 77 81 0.0 0.0 0.00 0.00 0.00 29 1010.5
20260505164546 77 351 2.6 5.2 0.00 0.00 0.00 29 1011.0
20260505164044 76 251 0.0 0.0 0.00 0.00 0.00 30 1010.3
20260505163537 75 226 0.0 0.0 0.00 0.00 0.00 31 1010.4
20260505163033 75 213 0.0 0.9 0.00 0.00 0.00 30 1010.3
20260505162532 75 325 1.7 1.7 0.00 0.00 0.00 31 1010.1
20260505162029 75 348 4.3 7.8 0.00 0.00 0.00 31 1010.3
20260505161526 74 243 2.6 5.2 0.00 0.00 0.00 32 1009.7
20260505161023 73 335 3.5 7.0 0.00 0.00 0.00 32 1009.8
20260505160522 73 224 4.3 5.2 0.00 0.00 0.00 33 1010.4
20260505152957 71 235 2.6 2.6 0.00 0.00 0.00 34 1009.3
20260505152454 70 266 2.6 4.3 0.00 0.00 0.00 34 1009.2
20260505151949 70 308 6.1 7.8 0.00 0.00 0.00 33 1009.2
20260505151445 70 285 2.6 2.6 0.00 0.00 0.00 33 1008.9
20260505150943 70 52 3.5 4.3 0.00 0.00 0.00 32 1009.1
20260505150439 71 228 3.5 5.2 0.00 0.00 0.00 31 1009.7
20260505140404 71 263 3.5 4.3 0.00 0.00 0.00 28 1009.0
20260505124817 70 256 3.5 4.3 0.00 0.00 0.00 28 1007.6
20260505124314 70 186 2.6 5.2 0.00 0.00 0.00 28 1007.9
20260505123810 70 238 4.3 6.1 0.00 0.00 0.00 28 1007.9
20260505123307 70 304 3.5 5.2 0.00 0.00 0.00 28 1007.5
20260505122803 70 246 2.6 4.3 0.00 0.00 0.00 28 1007.5
20260505122301 70 238 4.3 5.2 0.00 0.00 0.00 27 1007.2
20260505121756 70 265 2.6 4.3 0.00 0.00 0.00 27 1007.1
20260505121254 70 223 1.7 2.6 0.00 0.00 0.00 27 1007.3
20260505120750 70 255 2.6 4.3 0.00 0.00 0.00 27 1007.3
20260505120246 70 223 2.6 2.6 0.00 0.00 0.00 27 1007.3
20260505115745 71 230 2.6 2.6 0.00 0.00 0.00 26 1007.2
20260505115243 71 248 1.7 2.6 0.00 0.00 0.00 26 1007.2
20260505114740 71 225 0.9 0.9 0.00 0.00 0.00 26 1007.1
20260505114236 72 225 3.5 4.3 0.00 0.00 0.00 25 1007.2
20260505113733 72 229 6.1 7.0 0.00 0.00 0.00 25 1007.2
20260505113229 72 289 5.2 7.0 0.00 0.00 0.00 25 1007.1
20260505112725 73 248 1.7 2.6 0.00 0.00 0.00 25 1007.2
20260505112223 73 271 3.5 5.2 0.00 0.00 0.00 25 1007.1
20260505111723 73 244 7.0 8.7 0.00 0.00 0.00 25 1006.9
20260505111219 73 259 6.1 8.7 0.00 0.00 0.00 24 1007.4
20260505110715 73 227 3.5 4.3 0.00 0.00 0.00 24 1007.0
20260505110213 73 272 3.5 4.3 0.00 0.00 0.00 24 1007.3
20260505102148 72 236 3.5 6.1 0.00 0.00 0.00 24 1007.0
20260505101647 72 270 6.1 8.7 0.00 0.00 0.00 24 1006.9
20260505101143 72 243 4.3 6.1 0.00 0.00 0.00 25 1006.9
20260505100639 72 265 2.6 4.3 0.00 0.00 0.00 25 1007.0
20260505100136 72 228 3.5 5.2 0.00 0.00 0.00 25 1007.2
20260505095632 72 230 4.3 6.1 0.00 0.00 0.00 25 1006.9
20260505095129 72 267 3.5 4.3 0.00 0.00 0.00 25 1007.0
20260505094626 71 228 4.3 7.0 0.00 0.00 0.00 25 1006.9
20260505094122 71 280 5.2 6.1 0.00 0.00 0.00 26 1006.7
20260505093618 71 307 7.8 11.3 0.00 0.00 0.00 26 1006.7
20260505093115 71 241 5.2 7.0 0.00 0.00 0.00 26 1006.5
20260505092612 71 252 4.3 6.1 0.00 0.00 0.00 26 1007.1
20260505092112 71 349 4.3 6.1 0.00 0.00 0.00 26 1006.8
20260505091608 71 248 4.3 6.1 0.00 0.00 0.00 26 1006.5
20260505091106 71 254 7.0 9.6 0.00 0.00 0.00 27 1006.7
20260505090604 70 261 4.3 6.1 0.00 0.00 0.00 27 1006.8
20260505085559 71 223 3.5 5.2 0.00 0.00 0.00 28 1006.5
20260505085057 71 228 6.1 7.8 0.00 0.00 0.00 28 1006.7
20260505084555 71 239 4.3 7.0 0.00 0.00 0.00 28 1006.5
20260505084052 70 252 1.7 2.6 0.00 0.00 0.00 28 1006.4
20260505083549 70 271 3.5 6.1 0.00 0.00 0.00 28 1006.4
20260505083046 70 237 2.6 2.6 0.00 0.00 0.00 28 1006.5
20260505082542 71 233 3.5 4.3 0.00 0.00 0.00 28 1006.4
20260505082039 71 227 3.5 5.2 0.00 0.00 0.00 28 1006.5
20260505081535 70 246 4.3 5.2 0.00 0.00 0.00 28 1006.8
20260505081032 70 233 2.6 4.3 0.00 0.00 0.00 28 1006.5
20260505080528 70 237 6.1 7.0 0.00 0.00 0.00 28 1006.4
20260505080025 71 207 3.5 5.2 0.00 0.00 0.00 28 1006.8
20260505075521 71 237 3.5 4.3 0.00 0.00 0.00 27 1006.8
20260505075018 71 225 1.7 1.7 0.00 0.00 0.00 27 1006.5
20260505074515 71 250 2.6 2.6 0.00 0.00 0.00 27 1006.7
20260505074013 71 229 2.6 4.3 0.00 0.00 0.00 27 1006.7
20260505073510 71 260 3.5 5.2 0.00 0.00 0.00 27 1006.8
20260505073008 71 246 2.6 4.3 0.00 0.00 0.00 27 1007.0
20260505072504 72 236 4.3 6.1 0.00 0.00 0.00 27 1006.5
20260505071959 72 203 1.7 1.7 0.00 0.00 0.00 27 1006.8
20260505071455 72 253 2.6 2.6 0.00 0.00 0.00 26 1007.0
20260505070954 72 263 3.5 4.3 0.00 0.00 0.00 26 1007.1
20260505070450 72 261 4.3 6.1 0.00 0.00 0.00 26 1006.9
20260505065946 72 246 4.3 5.2 0.00 0.00 0.00 26 1007.2
20260505065443 72 223 2.6 4.3 0.00 0.00 0.00 26 1007.1
20260505064939 73 267 3.5 4.3 0.00 0.00 0.00 25 1007.1
20260505064436 73 252 0.9 1.7 0.00 0.00 0.00 25 1007.1
20260505063935 73 251 4.3 5.2 0.00 0.00 0.00 25 1007.1
20260505063431 73 223 3.5 5.2 0.00 0.00 0.00 25 1007.0
20260505062927 73 228 3.5 4.3 0.00 0.00 0.00 25 1007.1
20260505062425 74 232 1.7 2.6 0.00 0.00 0.00 24 1007.1
20260505061921 74 254 3.5 5.2 0.00 0.00 0.00 24 1007.0
20260505061420 74 223 3.5 4.3 0.00 0.00 0.00 24 1006.9
20260505060917 74 193 2.6 2.6 0.00 0.00 0.00 23 1007.2
20260505060414 75 233 4.3 6.1 0.00 0.00 0.00 23 1007.3
20260505055910 75 250 5.2 8.7 0.00 0.00 0.00 22 1007.2
20260505055406 74 252 4.3 6.1 0.00 0.00 0.00 22 1007.3
20260505054903 74 210 5.2 6.1 0.00 0.00 0.00 23 1007.3
20260505054400 74 247 3.5 6.1 0.00 0.00 0.00 22 1007.3
20260505053858 75 212 5.2 8.7 0.00 0.00 0.00 22 1007.3
20260505053355 75 244 5.2 6.1 0.00 0.00 0.00 22 1007.4
20260505052852 75 218 1.7 2.6 0.00 0.00 0.00 22 1007.3
20260505052349 75 231 2.6 2.6 0.00 0.00 0.00 22 1007.4
20260505051846 75 261 5.2 6.1 0.00 0.00 0.00 21 1007.4
20260505051343 75 311 5.2 7.0 0.00 0.00 0.00 21 1007.3
20260505050841 76 246 4.3 5.2 0.00 0.00 0.00 21 1007.2
20260505050339 75 129 4.3 7.0 0.00 0.00 0.00 21 1007.1
20260505041307 75 248 8.7 13.9 0.00 0.00 0.00 21 1007.2
20260505040804 75 286 5.2 6.1 0.00 0.00 0.00 21 1007.5
20260505040301 75 266 3.5 5.2 0.00 0.00 0.00 21 1007.5
20260505035758 76 226 1.7 2.6 0.00 0.00 0.00 21 1007.4